[Iaude] MPEC J213: 2024 JE6 [a=1.59,e=0.33,i=25.5,H=25.2]

mpec at cfa.harvard.edu mpec at cfa.harvard.edu
Wed May 8 22:59:42 EDT 2024


M.P.E.C. 2024-J213                                  Issued 2024 May 9, 02:57 UT

     The Minor Planet Electronic Circulars contain information on unusual
         minor planets, routine data on comets and natural satellites,
         and occasional editorial announcements.  They are published
    on behalf of Division F of the International Astronomical Union by the
          Minor Planet Center, Smithsonian Astrophysical Observatory,
                          Cambridge, MA 02138, U.S.A.
			  
             Prepared using the Tamkin Foundation Computer Network

                              MPC at CFA.HARVARD.EDU
            URL https://www.minorplanetcenter.net/    ISSN 1523-6714

                                    2024 JE6                                    


Observations:
     K24J06E*1C2024 05 07.28695014 46 22.159-03 58 56.03         20.92GVEJ213G96
     K24J06E 1C2024 05 07.29218214 46 23.977-03 57 11.59         20.79GVEJ213G96
     K24J06E 1C2024 05 07.29740914 46 25.687-03 55 26.00         20.12GVEJ213G96
     K24J06E 1C2024 05 07.30265314 46 27.455-03 53 41.32         20.19GVEJ213G96
     K24J06E  C2024 05 07.35073814 46 43.402-03 37 33.81         20.7 GVEJ213H01
     K24J06E  C2024 05 07.35520214 46 44.928-03 36 03.87         20.4 GVEJ213H01
     K24J06E  C2024 05 07.36436214 46 48.051-03 32 59.06         20.3 GVEJ213H01
     K24J06E  C2024 05 07.37281414 46 50.948-03 30 08.57         20.4 GVEJ213H01
     K24J06E KC2024 05 07.39134214 46 57.608-03 23 52.66         20.57GVEJ213I52
     K24J06E KC2024 05 07.39244314 46 57.965-03 23 30.23         20.44GVEJ213I52
     K24J06E KC2024 05 07.39354614 46 58.336-03 23 08.02         20.41GVEJ213I52
     K24J06E KC2024 05 07.40217414 47 08.453-03 18 02.34         20.3 GVEJ213474
     K24J06E KC2024 05 07.40419114 47 09.115-03 17 21.44         20.2 GVEJ213474
     K24J06E KC2024 05 07.40620714 47 09.804-03 16 40.80         20.4 GVEJ213474
     K24J06E KC2024 05 07.40822514 47 10.529-03 16 00.26         20.6 GVEJ213474
     K24J06E KC2024 05 07.91058514 50 17.926-00 29 45.06         20.5 GVEJ213J95
     K24J06E KC2024 05 07.92339714 50 22.435-00 25 26.65         20.2 GVEJ213J95
     K24J06E KC2024 05 07.96298214 50 36.154-00 12 09.22         20.1 GVEJ213J95
     K24J06E KC2024 05 08.19689214 52 04.24 +01 06 36.8          20.7 GVEJ213H21
     K24J06E KC2024 05 08.20248914 52 06.16 +01 08 29.3          20.6 GVEJ213H21
     K24J06E KC2024 05 08.20808614 52 08.04 +01 10 22.1          21.1 GVEJ213H21
     K24J06E 1C2024 05 08.91726 14 56 33.14 +05 06 17.2          21.2 VXEJ213033
     K24J06E 1C2024 05 08.91816 14 56 33.46 +05 06 35.0          20.9 VXEJ213033
     K24J06E 1C2024 05 08.91995 14 56 34.08 +05 07 10.5          21.2 VXEJ213033
     K24J06E 1C2024 05 08.92103 14 56 34.44 +05 07 31.8          21.1 VXEJ213033
     K24J06E KB2024 05 09.03369614 57 14.05 +05 44 49.7          20.6 GXEJ213I93
     K24J06E KB2024 05 09.03890414 57 15.84 +05 46 32.6          20.4 GXEJ213I93
     K24J06E KB2024 05 09.04404114 57 17.53 +05 48 13.6          20.7 GXEJ213I93

Observer details:
033 Karl Schwarzschild Observatory, Tautenburg.  Observers S. Melnikov, C.
    Hogner, F. Ludwig, M. Hartmann, B. Stecklum.  Measurer B. Stecklum.
    1.34-m f/3 Schmidt + CCD.
474 Mount John Observatory, Lake Tekapo.  Observers A. C. Gilmore, P. M.
    Kilmartin.  Measurer P. M. Kilmartin.  1.0-m f/7.7 Reflector + CCD.
G96 Mt. Lemmon Survey.  Observer G. J. Leonard.  Measurers T. Beuden, V. F.
    Carvajal, D. Fay, J. B. Fazekas, D. C. Fuls, A. R. Gibbs, A. D. Grauer, H.
    Groeller, J. K. Hogan, R. A. Kowalski, S. M. Larson, G. J. Leonard, D.
    Rankin, R. L. Seaman, F. C. Shelly, K. W. Wierzchos.  1.5-m reflector +
    10K CCD.
H01 Magdalena Ridge Observatory, Socorro.  Observers W. H. Ryan, E. V. Ryan.
    Measurer W. H. Ryan.  2.4-m f/8.9 Ritchey-Chretien + CCD.
H21 Astronomical Research Observatory, Westfield.  Observer R. Holmes.
    Measurers T. Linder, R. Holmes, L. Horn.  0.76-m f/3.0 astrograph + CCD.
I52 Steward Observatory, Mt. Lemmon Station.  Observer H. Groeller.  Measurers
    T. Beuden, V. F. Carvajal, D. Fay, J. B. Fazekas, D. C. Fuls, A. R. Gibbs,
    A. D. Grauer, H. Groeller, J. K. Hogan, R. A. Kowalski, S. M. Larson, G.
    J. Leonard, D. Rankin, R. L. Seaman, F. C. Shelly, K. W. Wierzchos.  1.0-m
    prime focus + CCD.
I93 St Pardon de Conques.  Observer F. Losse.  0.40-m f/3.7 reflector + CMO.
J95 Great Shefford.  Observer P. Birtwhistle.  0.41-m f/6.3 Schmidt-Cassegrain
    + CCD.

Orbital elements:
2024 JE6                                                 Earth MOID = 0.0815 AU
Epoch 2024 Mar. 31.0 TT = JDT 2460400.5                 Veres                   
M 330.36875              (2000.0)            P               Q                  
n   0.49314080     Peri.   25.16403     -0.37523849     +0.87622857             
a   1.5866779      Node   224.58512     -0.90652665     -0.41496750             
e   0.3271570      Incl.   25.51371     -0.19340501     +0.24500096             
P   2.00           H   25.21          G   0.15           U   8                  
Residuals in seconds of arc
240507 G96  0.1+  1.2+    240507 I52  0.1-  0.0     240508 H21  0.1-  0.2+
240507 G96  0.8+  0.2+    240507 474  0.5+  0.2-    240508 033  0.1-  0.1+
240507 G96  0.0   0.5+    240507 474  0.2-  0.1+    240508 033  0.1+  0.0
240507 G96  0.0   0.5-    240507 474  0.5-  0.1+    240508 033  0.1+  0.0
240507 H01  0.1-  0.1-    240507 474  0.2-  0.0     240508 033  0.1-  0.1-
240507 H01  0.0   0.2-    240507 J95  0.3-  0.0     240509 I93  0.0   0.1-
240507 H01  0.1-  0.1-    240507 J95  0.0   0.1+    240509 I93  0.2+  0.0
240507 H01  0.2-  0.2-    240507 J95  0.9-  0.3-    240509 I93  0.8-  0.4-
240507 I52  0.3+  0.2-    240508 H21  0.0   0.0
240507 I52  0.0   0.0     240508 H21  0.2+  0.1-

Ephemeris:
2024 JE6                 a,e,i = 1.59, 0.33, 26                  q = 1.0676
Date    TT    R. A. (2000) Decl.     Delta      r    Elong.  Phase     V
2024 04 09    12 32 44.1 -62 59 48   0.2612  1.1683   124.1    45.2    24.4
...
2024 04 24    13 28 12.7 -51 45 01   0.1439  1.1202   140.3    35.0    22.7
...
2024 05 02    14 13 27.4 -30 19 24   0.09562 1.1001   164.1    14.6    21.1
...
2024 05 08    14 50 48.9 +00 01 25   0.08202 1.0879   162.7    16.0    20.8
2024 05 09    14 57 02.5 +05 34 35   0.08268 1.0861   157.0    21.3    21.0
2024 05 10    15 03 13.5 +10 57 56   0.08419 1.0844   151.4    26.5    21.2
...
2024 05 16    15 38 42.1 +36 09 11   0.1075  1.0759   124.7    50.6    22.4
...
2024 05 24    16 19 15.8 +52 17 08   0.1577  1.0691   106.9    65.0    23.6
...
2024 06 08    17 12 13.3 +61 58 49   0.2619  1.0709    95.2    70.7    24.9

M. P. C. Staff               (C) Copyright 2024 MPC           M.P.E.C. 2024-J213





More information about the Iaude mailing list